Weather History for Volk, WI

Change the Weather History Date:

Sunday, January 15, 2012

  Actual Average Record
Temperature  
Mean Temperature 24 °F -  
Max Temperature 33 °F 20 °F - (-1)
Min Temperature 14 °F 9 °F - (-1)
Degree Days  
Heating Degree Days 42    
Moisture  
Dew Point 20 °F    
Average Humidity 86    
Maximum Humidity 100    
Minimum Humidity 65    
Precipitation  
Precipitation 0.00 in - - ()
Snow  
Snow 0.00 in - - ()
Snow Depth 2.00 in    
Sea Level Pressure  
Sea Level Pressure 30.10 in    
Wind  
Wind Speed 6 mph (SE)    
Max Wind Speed 16 mph    
Max Gust Speed -    
Visibility 10 miles    
Events      
Averages and records for this station are not official NWS values.
T = Trace of Precipitation, MM = Missing Value Source: NWS Daily Summary

Daily Weather History Graph

Daily Weather History Graph

Search for Another Location

Airport:

Trip Planner

Search our weather history database for the weather conditions in past years. The results will help you decide how hot, cold, wet, or windy it might be!

Date:

Astronomy

Jan. 15, 2012 Rise Set
Actual Time 7:32 AM CST 4:48 PM CST
Civil Twilight 7:00 AM CST 5:20 PM CST
Nautical Twilight 6:24 AM CST 5:56 PM CST
Astronomical Twilight 5:50 AM CST 6:30 PM CST
Moon No Moon Rise 10:33 AM CST (1/15)
Length of Visible Light 10h 19m
Length of Day
9h 15m
Waning Gibbous, 57% of the Moon is Illuminated
Jan 15
Waning Gibbous
Jan 16
Last Quarter
Jan 23
New
Jan 30
First Quarter
Feb 7
Full

Hourly Weather History & Observations

Time (CST) Temp. Windchill Dew Point Humidity Pressure Visibility Wind Dir Wind Speed Gust Speed Precip Events Conditions
12:55 AM 17.2 °F - 12.2 °F 81% 30.22 in 10.0 mi Calm Calm - N/A   Overcast
1:43 AM 17.6 °F 12.3 °F 14.0 °F 86% 30.22 in 10.0 mi South 3.5 mph - N/A   Overcast
1:55 AM 17.8 °F 12.5 °F 14.9 °F 88% 30.22 in 10.0 mi SSE 3.5 mph - N/A   Overcast
2:10 AM 17.6 °F 12.3 °F 15.8 °F 93% 30.22 in 10.0 mi SSE 3.5 mph - N/A   Overcast
2:35 AM 17.6 °F 10.7 °F 15.8 °F 93% 30.23 in 10.0 mi SSE 4.6 mph - N/A   Overcast
2:55 AM 18.1 °F - 16.0 °F 91% 30.23 in 10.0 mi Calm Calm - N/A   Overcast
3:55 AM 18.5 °F 11.7 °F 15.6 °F 89% 30.22 in 10.0 mi Variable 4.6 mph - N/A   Overcast
4:55 AM 18.9 °F 13.7 °F 15.8 °F 88% 30.22 in 10.0 mi South 3.5 mph - N/A   Overcast
5:00 AM 19.4 °F 14.3 °F 15.8 °F 86% 30.23 in 10.0 mi South 3.5 mph - N/A   Overcast
5:55 AM 19.2 °F 14.1 °F 16.5 °F 89% 30.23 in 10.0 mi ESE 3.5 mph - N/A   Overcast
5:57 AM 19.4 °F 12.8 °F 15.8 °F 86% 30.23 in 10.0 mi ESE 4.6 mph - N/A   Overcast
6:05 AM 19.4 °F 14.3 °F 15.8 °F 86% 30.23 in 10.0 mi SE 3.5 mph - N/A   Overcast
6:55 AM 16.7 °F - 15.4 °F 95% 30.23 in 10.0 mi Calm Calm - N/A   Overcast
6:58 AM 17.6 °F 12.3 °F 15.8 °F 93% 30.23 in 10.0 mi East 3.5 mph - N/A   Overcast
7:07 AM 15.8 °F 10.2 °F 14.0 °F 93% 30.22 in 10.0 mi ESE 3.5 mph - N/A   Mostly Cloudy
7:26 AM 14.0 °F 2.9 °F 14.0 °F 100% 30.22 in 10.0 mi SE 8.1 mph - N/A   Partly Cloudy
7:55 AM 15.8 °F 5.1 °F 14.0 °F 93% 30.22 in 10.0 mi SE 8.1 mph - N/A   Partly Cloudy
8:55 AM 17.6 °F 8.2 °F 15.8 °F 93% 30.22 in 10.0 mi ESE 6.9 mph - N/A   Scattered Clouds
9:55 AM 21.2 °F 10.9 °F 17.6 °F 86% 30.22 in 10.0 mi SE 9.2 mph - N/A   Mostly Cloudy
10:55 AM 24.8 °F 14.6 °F 19.4 °F 80% 30.20 in 10.0 mi SE 10.4 mph - N/A   Scattered Clouds
11:55 AM 30.2 °F 20.8 °F 21.2 °F 69% 30.16 in 10.0 mi SSE 11.5 mph - N/A   Scattered Clouds
12:55 PM 32.0 °F 22.5 °F 23.0 °F 69% 30.12 in 10.0 mi SE 12.7 mph - N/A   Partly Cloudy
1:55 PM 32.0 °F 21.2 °F 23.0 °F 69% 30.05 in 10.0 mi SE 16.1 mph - N/A   Mostly Cloudy
2:55 PM 33.8 °F 23.5 °F 23.0 °F 65% 30.01 in 10.0 mi SE 16.1 mph - N/A   Mostly Cloudy
3:55 PM 32.0 °F 22.1 °F 23.0 °F 69% 29.98 in 10.0 mi ESE 13.8 mph - N/A   Mostly Cloudy
4:55 PM 30.4 °F 20.5 °F 23.4 °F 75% 29.97 in 10.0 mi SE 12.7 mph - N/A   Clear
5:55 PM 28.9 °F 18.6 °F 23.5 °F 80% 29.98 in 10.0 mi SE 12.7 mph - N/A   Clear
6:55 PM 27.7 °F 17.6 °F 23.7 °F 85% 29.98 in 10.0 mi SE 11.5 mph - N/A   Partly Cloudy
7:04 PM 28.4 °F 17.5 °F 24.8 °F 86% 29.98 in 10.0 mi SE 13.8 mph - N/A   Mostly Cloudy
7:55 PM 28.6 °F 17.7 °F 25.2 °F 87% 29.95 in 10.0 mi SE 13.8 mph - N/A   Mostly Cloudy
8:01 PM 28.4 °F 17.5 °F 24.8 °F 86% 29.95 in 10.0 mi SE 13.8 mph - N/A   Scattered Clouds
8:22 PM 28.4 °F 17.5 °F 24.8 °F 86% 29.95 in 10.0 mi SE 13.8 mph - N/A   Mostly Cloudy
8:55 PM 29.3 °F 19.1 °F 26.2 °F 88% 29.95 in 10.0 mi SSE 12.7 mph - N/A   Overcast
9:55 PM 29.7 °F 19.1 °F 27.1 °F 90% 29.91 in 10.0 mi SSE 13.8 mph - N/A   Mostly Cloudy
10:07 PM 30.2 °F 20.2 °F 26.6 °F 86% 29.91 in 10.0 mi SE 12.7 mph - N/A   Scattered Clouds
10:09 PM 30.2 °F 19.8 °F 26.6 °F 86% 29.91 in 10.0 mi SSE 13.8 mph - N/A   Mostly Cloudy
10:13 PM 30.2 °F 19.3 °F 26.6 °F 86% 29.91 in 10.0 mi SE 15.0 mph - N/A   Scattered Clouds
10:55 PM 29.1 °F 20.6 °F 27.1 °F 92% 29.89 in 10.0 mi SE 9.2 mph - N/A   Partly Cloudy
11:55 PM 28.8 °F 20.9 °F 27.3 °F 94% 29.88 in 10.0 mi SE 8.1 mph - N/A   Clear